Vorticity
nan nan nan nan nan nan nan nan nan nan nan nan nan nan nan nan nan nan nan nan nan nan nan nan nan nan nan nan nan nan nan nan nan nan nan nan nan nan nan nan nan nan nan nan
nan 3 3 7 9 8 8 9 6 5 9 7 8 10 8 7 6 6 8 8 9 14 14 9 7 6 8 6 7 8 7 7 6 7 8 9 13 12 9 12 12 8 8 nan
nan 7 9 6 5 10 13 13 10 3 2 8 14 16 11 9 7 7 6 8 9 16 9 8 6 5 6 8 9 9 7 6 6 7 8 10 12 14 14 11 13 13 8 nan
nan 12 8 5 10 9 7 7 3 13 13 10 8 16 15 9 15 14 11 10 9 6 9 13 8 7 5 7 9 9 9 7 7 6 5 6 12 13 18 17 12 14 10 nan
nan 9 9 9 9 8 9 10 6 8 13 13 11 4 9 8 11 10 16 17 13 8 15 12 8 8 7 9 7 10 10 7 8 7 7 6 10 11 12 16 16 10 8 nan
nan 6 11 11 8 12 15 13 7 9 15 12 11 8 10 11 8 8 11 14 13 14 17 10 10 8 8 9 8 10 9 8 8 8 8 8 8 8 9 9 8 10 10 nan
nan 11 11 10 5 5 13 13 13 13 10 14 15 15 9 9 9 9 15 16 10 15 14 10 9 7 9 7 7 8 7 9 8 8 8 10 8 8 7 6 7 9 7 nan
nan 15 30 22 11 7 10 4 4 5 2 -1 14 17 12 17 14 8 11 13 10 10 9 11 8 8 9 7 7 7 9 7 8 8 7 8 7 6 8 7 7 8 10 nan
nan 14 6 14 27 16 7 7 3 3 5 9 9 2 13 17 15 14 6 10 7 12 11 11 8 9 9 9 9 7 8 7 9 7 6 7 8 8 9 9 7 7 9 nan
nan 12 2 9 15 15 13 4 11 13 6 9 9 11 16 5 10 15 19 15 9 9 11 11 9 9 9 10 9 10 9 10 9 8 7 9 8 8 7 9 10 9 7 nan
nan 14 8 11 12 7 17 6 8 8 5 8 5 6 6 26 13 -4 5 12 20 21 12 11 11 10 8 10 9 10 8 10 9 8 9 9 7 8 8 7 7 8 9 nan
nan 12 14 13 1 2 12 19 11 4 10 5 7 6 -3 5 7 12 6 8 10 16 18 16 12 10 8 8 8 8 9 9 10 9 9 7 7 9 9 9 9 8 9 nan
nan 12 8 11 9 19 10 11 14 9 11 8 6 1 9 9 4 3 8 3 8 12 13 17 16 10 8 8 8 9 9 8 10 10 9 8 7 8 8 8 11 11 9 nan
nan 5 5 8 5 5 2 4 15 17 11 15 9 7 11 -1 7 10 7 7 6 6 16 16 12 12 9 9 10 9 10 9 10 9 9 9 10 8 8 8 7 8 9 nan
nan 5 6 2 2 1 4 2 4 7 12 12 5 5 10 5 4 4 6 8 9 10 10 11 14 11 11 9 9 9 10 10 9 10 10 10 10 9 10 10 10 9 9 nan
nan 10 8 9 11 9 10 10 8 4 5 5 8 10 9 4 4 13 10 5 4 5 6 13 20 13 12 11 9 9 10 10 8 9 9 10 11 10 9 11 10 10 13 nan
nan 20 18 15 13 15 15 11 8 12 12 11 8 7 4 8 9 11 9 10 12 10 6 16 12 16 18 12 12 11 10 12 10 9 9 10 10 9 9 12 15 12 10 nan
nan 9 16 15 17 15 13 17 22 21 20 19 18 15 11 12 10 8 21 19 18 20 16 15 14 19 18 16 12 13 13 11 11 10 10 10 11 16 12 10 12 15 14 nan
nan 3 6 12 10 6 11 19 18 21 9 10 17 16 17 20 22 7 4 14 20 28 24 15 11 11 19 20 16 12 14 14 14 14 18 15 10 13 16 13 11 10 10 nan
nan 9 3 8 13 11 4 6 8 10 6 -4 6 7 11 15 14 1 -4 13 10 11 14 16 15 11 6 15 25 19 11 12 14 16 16 17 18 13 11 11 10 11 11 nan
nan 12 11 3 5 6 11 7 11 13 6 4 8 6 7 13 11 7 7 13 13 11 12 11 14 14 12 12 16 16 17 13 11 11 13 11 11 9 10 11 10 11 10 nan
nan 9 11 10 11 8 4 15 16 13 8 9 6 4 8 11 8 10 16 14 13 10 9 15 15 10 12 14 12 10 10 11 13 12 10 11 13 10 9 10 9 9 9 nan
nan 10 9 12 2 8 10 15 10 7 8 6 6 7 14 9 12 13 17 10 11 11 12 13 11 9 12 15 14 11 10 12 11 12 10 11 10 11 11 8 8 8 8 nan
nan 8 15 13 11 5 9 9 7 3 7 6 9 11 12 18 20 19 18 10 9 11 12 11 11 10 12 13 14 12 12 11 10 9 8 8 7 10 12 11 11 11 11 nan
nan 9 10 6 11 12 9 8 15 9 5 16 13 14 13 19 22 19 11 11 12 12 11 12 12 11 11 11 11 11 11 10 8 7 7 8 8 7 8 11 15 18 18 nan
nan nan nan nan nan nan nan nan nan nan nan nan nan nan nan nan nan nan nan nan nan nan nan nan nan nan nan nan nan nan nan nan nan nan nan nan nan nan nan nan nan nan nan nan
CAPE
0 0 0 0 0 0 0 0 0 0 0 0 27 28 0 0 0 0 0 0 3 3 143 673 420 351 29 30 3 0 6 6 7 8 12 10 1 1 82 76 1 0 1 0
0 0 0 0 0 0 0 0 0 0 0 0 0 0 0 0 0 0 0 0 0 11 353 643 410 301 18 0 0 1 9 4 8 11 11 12 9 4 32 71 7 2 0 0
0 0 0 0 0 0 0 0 8 0 0 0 0 0 0 0 0 0 0 0 0 0 326 559 396 289 21 0 1 1 0 4 5 5 7 1 11 28 51 88 4 1 0 0
0 0 0 0 0 0 0 0 0 0 2 1 0 1 0 0 0 0 0 0 0 0 10 546 391 311 77 1 1 3 2 1 7 3 8 0 1 2 2 52 2 1 0 0
0 0 0 0 0 0 2 0 0 0 3 11 0 1 0 0 0 0 0 0 0 0 0 582 360 278 177 1 0 1 4 3 1 3 2 1 1 2 1 2 1 0 0 0
0 0 0 0 0 0 9 3 0 3 7 16 0 0 0 0 0 0 2 0 6 0 0 454 425 225 130 62 0 2 4 5 3 1 4 2 1 3 1 2 4 3 1 4
0 0 0 0 0 0 0 2 12 20 27 3 0 6 0 0 0 0 0 10 9 2 194 352 413 108 46 37 1 0 2 3 8 0 6 1 0 0 1 2 3 3 3 2
0 0 10 0 0 0 0 24 12 18 27 42 0 1 7 9 0 0 7 6 11 26 320 306 441 136 57 36 3 0 3 3 5 4 0 0 0 0 1 0 1 7 6 5
21 10 107 3 0 0 0 17 3 71 31 6 0 1 28 6 0 0 1 37 17 123 186 353 472 283 124 41 13 21 1 1 6 3 0 0 0 0 0 1 0 0 0 17
0 4 33 63 0 0 0 0 24 67 12 8 0 0 1 14 13 6 10 39 14 19 247 416 451 434 277 151 78 14 9 2 2 10 1 0 1 0 0 4 1 0 0 2
0 0 0 18 86 8 0 0 0 2 17 39 44 0 12 18 58 32 9 17 44 17 99 435 450 522 329 231 173 53 26 6 2 8 6 3 0 2 0 0 0 0 0 0
0 0 9 0 8 22 77 0 0 7 0 54 27 0 0 0 1 0 0 1 16 30 53 395 467 621 428 254 172 83 59 44 18 7 2 0 0 1 5 0 0 0 13 6
36 19 8 0 0 0 0 102 116 29 36 21 23 0 0 0 0 1 0 0 0 45 47 249 487 646 541 363 240 113 78 49 37 28 17 2 5 8 4 3 8 13 13 14
24 24 44 55 17 0 12 2 5 87 0 1 1 0 0 8 0 0 1 0 0 2 20 319 457 629 625 465 352 213 110 74 59 38 32 24 17 5 2 0 0 0 3 7
45 54 25 0 0 0 0 0 0 0 0 0 13 10 41 11 0 2 0 2 0 0 0 63 434 562 715 634 484 322 210 110 78 62 78 77 65 54 41 22 22 6 17 8
49 16 17 27 0 0 0 0 0 0 0 0 0 0 0 0 0 0 0 0 0 0 0 0 123 407 612 758 630 451 335 123 98 73 61 78 121 102 91 110 106 92 61 50
91 82 54 34 9 0 0 0 0 0 0 0 0 0 0 0 0 0 0 0 0 0 0 0 25 83 503 657 717 641 521 268 113 86 107 100 119 112 105 114 99 71 11 0
18 87 107 51 49 36 0 0 0 15 0 0 0 0 0 0 0 59 94 11 3 0 0 8 65 73 35 555 637 668 597 508 324 236 213 172 129 124 132 49 0 0 0 0
48 70 66 44 28 0 0 1 65 173 133 115 89 125 117 107 60 178 180 183 181 110 78 36 41 79 21 304 598 602 502 562 449 337 256 188 223 0 0 0 0 1 0 1
10 142 122 66 20 1 0 32 7 0 25 84 12 4 12 10 95 168 0 110 1 26 36 41 104 118 72 0 365 516 360 39 0 0 0 0 0 0 0 0 1 1 1 1
41 90 47 110 44 27 3 0 1 0 10 6 11 4 3 12 14 9 1 0 0 0 0 0 0 0 0 0 0 0 0 0 0 0 0 0 0 0 7 6 1 4 2 0
46 94 56 79 50 19 74 41 37 67 0 20 17 3 3 2 20 0 7 1 0 0 0 0 1 0 0 0 0 0 1 1 0 2 0 1 0 0 1 0 1 0 0 0
28 26 74 52 54 87 82 66 85 23 23 5 0 0 4 1 12 2 0 0 0 0 0 0 0 0 0 0 0 0 1 0 1 1 7 2 0 1 1 0 0 1 0 0
7 1 31 37 78 40 4 17 0 0 0 0 0 2 2 8 16 13 0 0 0 0 0 0 0 0 0 0 0 0 1 0 0 0 1 1 1 0 0 0 0 1 0 2
4 4 13 34 62 47 51 27 13 1 0 0 1 17 53 56 5 0 0 0 0 0 0 0 1 1 1 1 1 1 1 0 0 0 1 0 0 0 0 0 0 1 1 0
6 3 27 39 0 3 5 36 19 24 21 47 18 57 0 0 1 0 2 2 2 2 0 0 1 1 1 2 2 2 2 0 0 2 2 1 2 2 1 2 3 7 2 2